CZ-2F DEB (46394 NORAD) Tracking and Keplerian Element Data

This shows tracking and keplerian element data for the satellite.

Feedback or suggestion? Click here.




ElementValue
Catalog46394
NameCZ-2F DEB
Epoch Orbit444
Epoch Day277.69375387
Epoch Year2020
RAAN275.1803
Inclination50.4626
Eccentricity0.0099095
Argument of Perigee308.7408
Mean Anonmoly50.4796
Mean Motion15.60378335
Decay Rate0.00161943
L11 46394U 20063F 20277.69375387 .00161943 00000-0 14958-2 0 9996
L22 46394 50.4626 275.1803 0099095 308.7408 50.4796 15.60378335 4443

Live tracking and technical data element details for CZ-2F DEB (NORAD 46394). CZ-2F DEB can be tracked NOW for your location showing map with azimuth and elevation plus other details from your city location.

Track the satellite on the map from your city or location and see movement details for azimuth, elevation, latitude, longitude, range, height, and movement on the map or in text.







IsCatalogInMostPopularTable: catalog: 46394, numindb: 29
Update: records affected: 1



GetName: 46394 CZ-2F DEB

Hit Count: updated at: Sun, 06 Dec 2020 01:28:39 GMT